Regional Weather Roundup
Issued by NWS Charleston, WV

Home | Current Version | Previous Version | Text Only | Print | Product List | Glossary On
Versions: 1 2 3 4 5 6 7 8 9 10 11 12 13 14 15 16 17 18 19 20 21 22 23 24 25 26 27 28 29 30 31 32 33 34 35 36 37 38 39 40 41 42 43 44 45 46 47 48 49 50
000
ASUS41 KRLX 170810
RWRRLX
Regional Weather Roundup
National Weather Service Charleston WV
300 AM EST MON FEB 17 2020

Note: "fair" indicates few or no clouds below 12,000 feet with no
significant weather and/or obstructions to visibility.

WVZ003-170900-
Northern Panhandle of West Virginia

CITY           SKY/WX    TMP DP  RH WIND       PRES   REMARKS
WHEELING       FAIR      29  27  92 CALM      30.15R FOG
$$

WVZ009-170900-
Northwest West Virginia

CITY           SKY/WX    TMP DP  RH WIND       PRES   REMARKS
PARKERSBURG    FAIR      26  24  92 CALM      30.16R
$$

WVZ006-170900-
Western West Virginia

CITY           SKY/WX    TMP DP  RH WIND       PRES   REMARKS
HUNTINGTON     FAIR      35  29  78 N5        30.13S
$$

WVZ015-170900-
West Central West Virginia

CITY           SKY/WX    TMP DP  RH WIND       PRES   REMARKS
CHARLESTON     FAIR      34  30  85 CALM      30.12S
$$

WVZ022-031-170900-
North Central West Virginia

CITY           SKY/WX    TMP DP  RH WIND       PRES   REMARKS
MORGANTOWN     FOG       30  28  92 CALM      30.14S VSB 1/4
CLARKSBURG     FAIR      33  29  85 N5        30.13S
BUCKHANNON     FAIR      36  36 100 CALM      30.11S
$$

WVZ025-035-042-045-170900-
Southern West Virginia

CITY           SKY/WX    TMP DP  RH WIND       PRES   REMARKS
BECKLEY        FAIR      35  27  72 CALM      30.07S
LOGAN          NOT AVBL
PINEVILLE      FAIR      36  33  90 MISG      30.14R
BLUEFIELD      FAIR      37  28  70 CALM      30.08S
LEWISBURG      FAIR      35  30  83 CALM      30.08R
$$

WVZ047-170900-
Northern Mountains of West Virginia

CITY           SKY/WX    TMP DP  RH WIND       PRES   REMARKS
ELKINS         FAIR      29  25  85 CALM      30.11S
$$

WVZ052-170900-
Eastern Panhandle of West Virginia

CITY           SKY/WX    TMP DP  RH WIND       PRES   REMARKS
MARTINSBURG    FAIR      33  27  78 CALM      30.13R
PETERSBURG     FAIR      36  32  84 CALM      30.12S
$$

Southeast Ohio/Northeast Kentucky

CITY           SKY/WX    TMP DP  RH WIND       PRES   REMARKS
ATHENS         FAIR      22  22 100 CALM      30.16R
ASHLAND        FAIR      27  26  96 CALM      30.16S
$$




USA.gov is the U.S. government's official web portal to all federal, state and local government web resources and services.